FW0610 Weather Reports


time (UTC)temp
C
wind
direction
speed
KPH
gust
KPH
rain 1hr
cm
rain 24hr
cm
rain mn
cm
humidity
%
barometer
mb
20260506211544 5 261 1.6 9.7 0.03 1.32 1.27 83 1005.9
20260506210041 6 0 1.6 11.3 0.03 1.32 1.24 83 1005.8
20260506204541 6 0 0.0 11.3 0.05 1.73 1.24 83 1005.7
20260506203041 6 0 4.8 11.3 0.05 1.73 1.24 83 1005.6
20260506201540 6 0 0.0 14.5 0.05 1.73 1.24 82 1005.6
20260506200043 6 0 1.6 11.3 0.00 1.68 1.19 83 1005.5
20260506194541 6 263 3.2 12.9 0.03 1.70 1.19 82 1005.6
20260506193042 6 0 1.6 11.3 0.05 1.70 1.19 82 1005.6
20260506191538 6 333 3.2 14.5 0.08 1.70 1.19 81 1005.8
20260506190040 6 0 0.0 6.4 0.13 1.70 1.19 81 1006.1
20260506184550 6 288 1.6 9.7 0.15 1.68 1.17 82 1006.2
20260506183042 6 0 0.0 4.8 0.18 1.65 1.14 82 1006.3
20260506181540 6 0 0.0 4.8 0.20 1.63 1.12 82 1006.5
20260506180045 5 0 0.0 6.4 0.18 1.57 1.07 83 1006.7
20260506174539 5 261 3.2 14.5 0.18 1.52 1.02 84 1006.9
20260506173121 5 295 4.8 17.7 0.18 1.47 0.97 83 1006.9
20260506171543 6 298 3.2 16.1 0.15 1.42 0.91 84 1006.7
20260506170044 6 267 4.8 16.1 0.18 1.40 0.89 84 1007.0
20260506164541 6 287 6.4 17.7 0.15 1.32 0.84 84 1006.7
20260506163040 7 0 0.0 3.2 0.13 1.30 0.79 81 1006.4
20260506161539 7 0 0.0 4.8 0.15 1.27 0.76 82 1006.6
20260506160037 7 0 0.0 9.7 0.13 1.22 0.71 81 1006.8
20260506154549 7 0 0.0 3.2 0.10 1.19 0.69 81 1007.1
20260506153046 7 0 0.0 4.8 0.10 1.17 0.66 81 1007.3
20260506151541 7 0 0.0 4.8 0.08 1.12 0.61 80 1007.5
20260506150042 7 0 0.0 3.2 0.08 1.09 0.58 80 1007.4
20260506144541 7 15 1.6 8.0 0.08 1.09 0.58 81 1007.2
20260506143044 7 0 0.0 0.0 0.08 1.07 0.56 80 1007.6
20260506141540 7 0 1.6 6.4 0.08 1.04 0.53 80 1007.7
20260506140041 6 84 9.7 19.3 0.08 1.02 0.51 83 1007.8
20260506134539 6 21 3.2 14.5 0.13 1.02 0.51 83 1007.6
20260506133039 7 0 0.0 3.2 0.15 0.99 0.48 81 1007.9
20260506131546 7 0 0.0 6.4 0.15 0.97 0.46 82 1007.8
20260506130058 7 5 3.2 9.7 0.13 0.94 0.43 82 1008.0
20260506124545 7 0 4.8 14.5 0.08 0.89 0.38 82 1008.5
20260506123042 8 0 1.6 11.3 0.03 0.84 0.33 79 1008.5
20260506121539 8 0 0.0 0.0 0.00 0.81 0.30 78 1008.3
20260506120036 8 0 0.0 0.0 0.00 0.81 0.30 79 1008.1
20260506114542 8 0 0.0 3.2 0.03 0.81 0.30 79 1007.9
20260506113050 8 0 0.0 0.0 0.03 0.81 0.30 79 1008.0
20260506111541 8 0 0.0 0.0 0.03 0.81 0.30 80 1008.0
20260506110047 8 0 0.0 1.6 0.03 0.81 0.30 79 1008.0
20260506104543 8 0 0.0 1.6 0.00 0.79 0.28 80 1008.4
20260506103049 8 0 0.0 4.8 0.00 0.79 0.28 80 1008.1
20260506101552 8 293 0.0 4.8 0.00 0.79 0.28 79 1008.7
20260506100059 9 0 0.0 1.6 0.03 0.79 0.28 79 1008.4
20260506094540 9 0 0.0 0.0 0.03 0.79 0.28 79 1008.6
20260506093043 9 0 0.0 0.0 0.05 0.79 0.28 79 1008.6
20260506091538 9 0 0.0 0.0 0.05 0.79 0.28 79 1008.9
20260506090045 9 259 0.0 3.2 0.03 0.76 0.25 80 1008.9
20260506084604 9 0 1.6 9.7 0.03 0.76 0.25 79 1009.2
20260506083040 9 0 0.0 0.0 0.00 0.74 0.23 80 1008.7
20260506081546 9 0 0.0 0.0 0.05 0.74 0.23 80 1009.0
20260506073046 9 0 0.0 3.2 0.05 0.74 0.23 81 1008.6
20260506071541 9 0 0.0 0.0 0.00 0.69 0.18 82 1009.0
20260506061537 10 57 0.0 8.0 0.05 0.69 0.18 82 1009.1
20260506044637 10 0 0.0 14.5 0.15 0.61 0.10 86 1008.8
20260506043040 10 290 0.0 17.7 0.10 0.56 0.05 86 1008.9
20260506041538 11 320 0.0 14.5 0.08 0.53 0.03 86 1008.3
20260506040039 11 305 6.4 17.7 0.05 0.51 0.00 83 1008.1
20260506034602 12 0 0.0 6.4 0.00 0.46 0.46 78 1007.9
20260506033037 12 15 1.6 9.7 0.00 0.46 0.46 77 1007.7
20260506031543 12 0 0.0 1.6 0.00 0.46 0.46 78 1007.4
20260506030041 12 0 0.0 3.2 0.00 0.46 0.46 78 1006.9
20260506024541 12 0 0.0 1.6 0.00 0.46 0.46 78 1007.0
20260506023059 12 0 0.0 0.0 0.00 0.46 0.46 79 1007.4
20260506021536 12 0 0.0 3.2 0.00 0.46 0.46 79 1007.1
20260506020044 12 0 0.0 3.2 0.00 0.46 0.46 80 1006.7
20260506014542 12 0 0.0 0.0 0.00 0.46 0.46 79 1006.9
20260506013041 12 0 0.0 4.8 0.00 0.46 0.46 79 1006.7
20260506011539 12 0 0.0 0.0 0.00 0.46 0.46 80 1006.8
20260506010043 12 0 0.0 0.0 0.00 0.46 0.46 80 1006.6
20260506004557 12 0 0.0 0.0 0.00 0.46 0.46 81 1006.1
20260506003056 12 0 0.0 0.0 0.00 0.46 0.46 82 1006.0
20260506001541 12 0 0.0 0.0 0.00 0.46 0.46 83 1006.5
20260506000040 13 0 0.0 0.0 0.00 0.46 0.46 84 1006.2
20260505234557 13 0 0.0 0.0 0.00 0.46 0.46 83 1006.1
20260505233039 13 0 0.0 1.6 0.00 0.46 0.46 83 1005.9
20260505231537 13 0 0.0 0.0 0.00 0.46 0.46 84 1005.7
20260505230044 14 0 0.0 3.2 0.00 0.46 0.46 85 1005.5
20260505224541 14 0 0.0 1.6 0.00 0.46 0.46 85 1005.7
20260505223039 15 0 1.6 4.8 0.03 0.46 0.46 85 1005.5
20260505221539 15 37 1.6 6.4 0.03 0.46 0.46 86 1004.9
20260505220054 15 0 0.0 6.4 0.03 0.46 0.46 86 1005.4
20260505214544 15 301 0.0 4.8 0.03 0.46 0.46 86 1005.4
20260505213042 15 254 1.6 14.5 0.00 0.43 0.43 86 1005.7